Orbital Elements at Epoch 2459000.5 (2020-May-31.0) TDB
Reference: JPL 18 (heliocentric ecliptic J2000)
Element | Value | Uncertainty (1-sigma) | Units |
e | .2067920225980947 | 5.3491e-08 | |
a | 2.201501529685595 | 1.1211e-08 | au |
q | 1.746248575609112 | 1.1248e-07 | au |
i | 9.144138528594359 | 5.3985e-06 | deg |
node | 313.2451468466388 | 3.2124e-05 | deg |
peri | 344.0558375376728 | 3.5952e-05 | deg |
M | 7.782760827625532 | 1.6466e-05 | deg |
tp | 2458974.706629421906 (2020-May-05.20662942) | 5.4485e-05 | TDB |
period | 1193.100188194644 3.27 | 9.1135e-06 2.495e-08 | d yr |
n | .3017349285182319 | 2.3048e-09 | deg/d |
Q | 2.656754483762079 | 1.3529e-08 | au |
|
| | Orbit Determination Parameters
Additional Information
|